• Em Portugal
  • Lista de países
  • Para 7 dias
  • Temperatura da água
  • Mapas de satélite
  • Mapa do tempo
  • Widgets de tempo
  • user-avatar
    Iniciar Sessão

    Previsão horária em Olszyniec

    Hoje, 23 Abril, Segunda-feira

    Tempo Temperatura Precipitação Vento Pressão Humidade
    00:00 +13°C° 0 mm 2 m/s 719 mmHg 74%
    01:00 +13°C° 0 mm 2 m/s 719 mmHg 70%
    02:00 +12°C° 0,2 mm 2 m/s 718 mmHg 72%
    03:00 +12°C° 0,2 mm 2 m/s 718 mmHg 75%
    04:00 +12°C° 0,2 mm 2 m/s 718 mmHg 77%
    05:00 +13°C° 0 mm 2 m/s 718 mmHg 76%
    06:00 +15°C° 0 mm 2 m/s 718 mmHg 75%
    07:00 +16°C° 0 mm 2 m/s 718 mmHg 75%
    08:00 +18°C° 0 mm 3 m/s 718 mmHg 69%
    09:00 +19°C° 0 mm 3 m/s 718 mmHg 63%
    10:00 +21°C° 0 mm 4 m/s 718 mmHg 58%
    11:00 +22°C° 0,2 mm 4 m/s 718 mmHg 55%
    12:00 +22°C° 0,2 mm 4 m/s 718 mmHg 52%
    13:00 +23°C° 0,2 mm 4 m/s 718 mmHg 50%
    14:00 +22°C° 0,4 mm 4 m/s 718 mmHg 56%
    15:00 +21°C° 0,4 mm 4 m/s 718 mmHg 62%
    16:00 +20°C° 0,4 mm 4 m/s 718 mmHg 68%
    17:00 +18°C° 0,2 mm 3 m/s 718 mmHg 73%
    18:00 +17°C° 0,2 mm 3 m/s 718 mmHg 78%
    19:00 +16°C° 0,2 mm 2 m/s 718 mmHg 83%
    20:00 +15°C° 0,1 mm 2 m/s 718 mmHg 86%
    21:00 +14°C° 0,1 mm 2 m/s 718 mmHg 88%
    22:00 +12°C° 0,1 mm 3 m/s 719 mmHg 91%
    23:00 +12°C° 0 mm 2 m/s 719 mmHg 92%

    Amanhã, 24 Abril, Terça-feira

    Tempo Temperatura Precipitação Vento Pressão Humidade
    00:00 +12°C° 0 mm 2 m/s 719 mmHg 92%
    01:00 +10°C° 0 mm 2 m/s 719 mmHg 93%
    02:00 +10°C° 0 mm 2 m/s 720 mmHg 93%
    03:00 +9°C° 0 mm 2 m/s 720 mmHg 93%
    04:00 +9°C° 0 mm 2 m/s 720 mmHg 93%
    05:00 +10°C° 0 mm 2 m/s 720 mmHg 88%
    06:00 +12°C° 0 mm 2 m/s 721 mmHg 83%
    07:00 +13°C° 0 mm 2 m/s 721 mmHg 79%
    08:00 +13°C° 0 mm 3 m/s 721 mmHg 72%
    09:00 +14°C° 0 mm 3 m/s 721 mmHg 65%
    10:00 +17°C° 0 mm 4 m/s 721 mmHg 58%
    11:00 +18°C° 0 mm 4 m/s 721 mmHg 56%
    12:00 +18°C° 0 mm 4 m/s 721 mmHg 54%
    13:00 +19°C° 0 mm 4 m/s 721 mmHg 51%
    14:00 +19°C° 0 mm 4 m/s 720 mmHg 51%
    15:00 +19°C° 0 mm 4 m/s 720 mmHg 50%
    16:00 +19°C° 0 mm 4 m/s 719 mmHg 49%
    17:00 +18°C° 0 mm 4 m/s 719 mmHg 56%
    18:00 +16°C° 0 mm 3 m/s 719 mmHg 62%
    19:00 +14°C° 0 mm 2 m/s 719 mmHg 68%
    20:00 +13°C° 0 mm 2 m/s 719 mmHg 70%
    21:00 +13°C° 0 mm 2 m/s 719 mmHg 72%
    22:00 +12°C° 0 mm 2 m/s 719 mmHg 74%
    23:00 +10°C° 0 mm 2 m/s 719 mmHg 75%

    Depois de amanhã, 25 Abril, Quarta-feira

    Tempo Temperatura Precipitação Vento Pressão Humidade
    00:00 +11°C° 0 mm 1 m/s 719 mmHg 77%
    01:00 +10°C° 0 mm 1 m/s 719 mmHg 79%
    02:00 +10°C° 0 mm 1 m/s 719 mmHg 79%
    03:00 +10°C° 0 mm 1 m/s 719 mmHg 80%
    04:00 +8°C° 0 mm 2 m/s 719 mmHg 81%
    05:00 +10°C° 0 mm 2 m/s 718 mmHg 79%
    06:00 +11°C° 0 mm 3 m/s 718 mmHg 76%
    07:00 +12°C° 0 mm 4 m/s 718 mmHg 73%
    08:00 +14°C° 0 mm 4 m/s 718 mmHg 68%
    09:00 +16°C° 0 mm 5 m/s 718 mmHg 62%
    10:00 +19°C° 0 mm 6 m/s 718 mmHg 57%
    11:00 +19°C° 0 mm 6 m/s 718 mmHg 55%
    12:00 +20°C° 0 mm 7 m/s 718 mmHg 52%
    13:00 +21°C° 0 mm 7 m/s 717 mmHg 50%
    14:00 +21°C° 0,1 mm 7 m/s 717 mmHg 52%
    15:00 +20°C° 0,1 mm 6 m/s 716 mmHg 54%
    16:00 +20°C° 0,1 mm 6 m/s 716 mmHg 56%
    17:00 +17°C° 0,3 mm 5 m/s 716 mmHg 64%
    18:00 +17°C° 0,3 mm 4 m/s 716 mmHg 71%
    19:00 +14°C° 0,3 mm 3 m/s 716 mmHg 79%
    20:00 +13°C° 0,1 mm 3 m/s 716 mmHg 83%
    21:00 +12°C° 0,1 mm 3 m/s 717 mmHg 87%
    22:00 +12°C° 0,1 mm 2 m/s 717 mmHg 91%
    23:00 +12°C° 0 mm 2 m/s 717 mmHg 91%

    26 Abril, Quinta-feira

    Tempo Temperatura Precipitação Vento Pressão Humidade
    00:00 +10°C° 0 mm 2 m/s 717 mmHg 92%
    01:00 +10°C° 0 mm 2 m/s 717 mmHg 93%
    02:00 +9°C° 0 mm 2 m/s 718 mmHg 94%
    03:00 +9°C° 0 mm 2 m/s 718 mmHg 94%
    04:00 +8°C° 0 mm 2 m/s 718 mmHg 95%
    05:00 +9°C° 0,1 mm 2 m/s 718 mmHg 91%
    06:00 +10°C° 0,1 mm 2 m/s 718 mmHg 87%
    07:00 +11°C° 0,1 mm 3 m/s 718 mmHg 84%
    08:00 +12°C° 0,1 mm 4 m/s 719 mmHg 75%
    09:00 +13°C° 0,1 mm 5 m/s 719 mmHg 67%
    10:00 +14°C° 0,1 mm 6 m/s 719 mmHg 59%
    11:00 +14°C° 0 mm 6 m/s 719 mmHg 57%
    12:00 +15°C° 0 mm 6 m/s 719 mmHg 54%
    13:00 +15°C° 0 mm 6 m/s 719 mmHg 51%
    14:00 +14°C° 0,1 mm 6 m/s 719 mmHg 52%
    15:00 +14°C° 0,1 mm 6 m/s 719 mmHg 52%
    16:00 +14°C° 0,1 mm 5 m/s 719 mmHg 53%
    17:00 +12°C° 0,1 mm 5 m/s 719 mmHg 57%
    18:00 +11°C° 0,1 mm 4 m/s 720 mmHg 62%
    19:00 +9°C° 0,1 mm 3 m/s 720 mmHg 67%
    20:00 +8°C° 0 mm 2 m/s 720 mmHg 69%
    21:00 +7°C° 0 mm 2 m/s 720 mmHg 70%
    22:00 +6°C° 0 mm 2 m/s 721 mmHg 72%
    23:00 +5°C° 0 mm 2 m/s 721 mmHg 73%

    27 Abril, Sexta-feira

    Tempo Temperatura Precipitação Vento Pressão Humidade
    00:00 +5°C° 0 mm 2 m/s 721 mmHg 73%
    01:00 +5°C° 0 mm 2 m/s 721 mmHg 74%
    02:00 +4°C° 0 mm 2 m/s 721 mmHg 75%
    03:00 +4°C° 0 mm 2 m/s 721 mmHg 76%
    04:00 +4°C° 0 mm 2 m/s 721 mmHg 76%
    05:00 +5°C° 0 mm 2 m/s 721 mmHg 73%
    06:00 +6°C° 0 mm 2 m/s 722 mmHg 70%
    07:00 +8°C° 0 mm 2 m/s 722 mmHg 67%
    08:00 +9°C° 0 mm 2 m/s 722 mmHg 62%
    09:00 +12°C° 0 mm 2 m/s 722 mmHg 56%
    10:00 +13°C° 0 mm 2 m/s 722 mmHg 50%
    11:00 +13°C° 0 mm 2 m/s 722 mmHg 48%
    12:00 +14°C° 0 mm 1 m/s 722 mmHg 47%
    13:00 +14°C° 0 mm 1 m/s 721 mmHg 45%
    14:00 +15°C° 0 mm 1 m/s 721 mmHg 45%
    15:00 +15°C° 0 mm 1 m/s 721 mmHg 45%
    16:00 +15°C° 0 mm 1 m/s 720 mmHg 45%
    17:00 +13°C° 0 mm 2 m/s 720 mmHg 53%
    18:00 +12°C° 0 mm 2 m/s 720 mmHg 61%
    19:00 +9°C° 0 mm 2 m/s 719 mmHg 68%
    20:00 +8°C° 0 mm 2 m/s 719 mmHg 71%
    21:00 +8°C° 0 mm 2 m/s 719 mmHg 73%
    22:00 +7°C° 0 mm 2 m/s 719 mmHg 75%
    23:00 +6°C° 0 mm 2 m/s 719 mmHg 76%

    28 Abril, Sábado

    Tempo Temperatura Precipitação Vento Pressão Humidade
    00:00 +6°C° 0 mm 2 m/s 719 mmHg 76%
    01:00 +6°C° 0 mm 2 m/s 719 mmHg 77%
    02:00 +5°C° 0 mm 2 m/s 718 mmHg 76%
    03:00 +5°C° 0 mm 2 m/s 718 mmHg 75%
    04:00 +5°C° 0 mm 2 m/s 718 mmHg 74%
    05:00 +7°C° 0 mm 2 m/s 718 mmHg 71%
    06:00 +9°C° 0 mm 2 m/s 718 mmHg 69%
    07:00 +10°C° 0 mm 3 m/s 718 mmHg 66%
    08:00 +12°C° 0 mm 3 m/s 718 mmHg 64%
    09:00 +14°C° 0 mm 4 m/s 718 mmHg 61%
    10:00 +16°C° 0 mm 5 m/s 718 mmHg 59%
    11:00 +18°C° 0 mm 4 m/s 717 mmHg 59%
    12:00 +19°C° 0 mm 4 m/s 717 mmHg 59%
    13:00 +19°C° 0 mm 4 m/s 717 mmHg 58%
    14:00 +19°C° 0 mm 3 m/s 716 mmHg 60%
    15:00 +19°C° 0 mm 3 m/s 716 mmHg 63%
    16:00 +19°C° 0 mm 3 m/s 715 mmHg 65%
    17:00 +18°C° 0 mm 2 m/s 715 mmHg 69%
    18:00 +16°C° 0 mm 2 m/s 715 mmHg 74%
    19:00 +15°C° 0 mm 2 m/s 714 mmHg 79%
    20:00 +15°C° 0 mm 2 m/s 714 mmHg 80%
    21:00 +14°C° 0 mm 2 m/s 714 mmHg 82%
    22:00 +14°C° 0 mm 2 m/s 714 mmHg 84%
    23:00 +14°C° 0,2 mm 2 m/s 714 mmHg 86%
    Mostrar mais